{"data":{"norad_id":61749,"intl_designator":"2024-199Q","name":"VIZARD-ION (RS68S)","alt_names":[],"object_type":"PAYLOAD","status":"ACTIVE","operator":null,"country":"CIS","launch_date":"2024-11-04","launch_site_code":"VOSTO","launch_vehicle":null,"mission":null,"orbit_class":"UNKNOWN","rcs_meters":null,"size_class":null,"mass_kg":null,"dimensions":null,"purposes":[],"wikipedia_slug":null,"has_3d_model":false,"image_url":null,"decayed_at":null,"tle_current":{"epoch":"2026-09-22T22:08:31.882272Z","epoch_age_seconds":90731,"freshness":"FRESH","line1":"1 61749U 24199Q   26265.92259123  .00038223  00000+0  43329-3 0  9997","line2":"2 61749  97.2794 144.5421 0002619 260.0617 100.0346 15.62295585152794","mean_motion":15.62295585,"eccentricity":0.0002619,"inclination_deg":97.2794,"raan_deg":144.5421,"arg_perigee_deg":260.0617,"mean_anomaly_deg":100.0346,"bstar":0.00043329,"rev_number":15279,"period_min":92.172058464852,"perigee_km":379.25760999556,"apogee_km":382.79806053628,"semimajor_km":6759.1648352659,"source":"CELESTRAK","updated_at":"2026-09-23T09:00:21.026417Z"}}}